VK6MTG Weather Reports


time (UTC)temp
C
wind
direction
speed
KPH
gust
KPH
rain 1hr
cm
rain 24hr
cm
rain mn
cm
humidity
%
barometer
mb
20260503180819 15 0.0 0.0 0.00 0.00 0.00 62 1205.4
20260503180319 15 0.0 0.0 0.00 0.00 0.00 62 1205.4
20260503175819 15 0.0 0.0 0.00 0.00 0.00 62 1205.4
20260503175319 15 0.0 0.0 0.00 0.00 0.00 62 1205.4
20260503174819 15 0.0 0.0 0.00 0.00 0.00 62 1205.4
20260503174319 15 0.0 0.0 0.00 0.00 0.00 62 1205.4
20260503173819 15 0.0 0.0 0.00 0.00 0.00 62 1204.4
20260503172937 15 0.0 0.0 0.00 0.00 0.00 62 1204.4
20260503172437 15 0.0 0.0 0.00 0.00 0.00 62 1204.4
20260503171937 16 0.0 0.0 0.00 0.00 0.00 62 1204.4
20260503171437 16 0.0 0.0 0.00 0.00 0.00 62 1204.4
20260503170937 16 0.0 0.0 0.00 0.00 0.00 62 1206.4
20260503170437 16 0.0 0.0 0.00 0.00 0.00 62 1206.4
20260503150520 17 0.0 0.0 0.00 0.00 0.00 64 1192.3
20260503140137 18 0.0 0.0 0.00 0.00 0.00 66 1193.3
20260503131255 18 0.0 0.0 0.00 0.00 0.00 65 1206.4
20260503130755 18 0.0 0.0 0.00 0.00 0.00 65 1208.4
20260503130254 18 0.0 0.0 0.00 0.00 0.00 65 1208.4
20260503110530 18 180 3.2 3.2 0.00 0.00 0.00 56 1213.5
20260503090113 21 96 3.2 3.2 0.00 0.00 0.00 38 1220.5
20260503081231 22 112 6.4 9.7 0.00 0.00 0.00 35 1220.5
20260503080731 22 98 4.8 9.7 0.00 0.00 0.00 34 1220.5
20260503080231 22 56 6.4 9.7 0.00 0.00 0.00 34 1220.5
20260503072848 24 82 4.8 8.0 0.00 0.00 0.00 31 1220.5
20260503072348 25 68 8.0 9.7 0.00 0.00 0.00 30 1220.5
20260503071848 26 112 9.7 9.7 0.00 0.00 0.00 30 1220.5
20260503071348 26 118 4.8 12.9 0.00 0.00 0.00 30 1220.5
20260503070848 27 112 4.8 12.9 0.00 0.00 0.00 29 1220.5
20260503070348 27 150 6.4 9.7 0.00 0.00 0.00 29 1220.5
20260503055122 23 98 9.7 12.9 0.00 0.00 0.00 42 1218.5
20260503054622 22 82 6.4 9.7 0.00 0.00 0.00 43 1218.5
20260503054123 22 112 4.8 8.0 0.00 0.00 0.00 43 1217.5
20260503053623 22 142 8.0 8.0 0.00 0.00 0.00 43 1217.5
20260503053122 22 300 4.8 9.7 0.00 0.00 0.00 43 1217.5
20260503052622 22 112 6.4 9.7 0.00 0.00 0.00 43 1217.5
20260503052123 22 158 6.4 9.7 0.00 0.00 0.00 44 1217.5
20260503051622 22 112 4.8 9.7 0.00 0.00 0.00 44 1217.5
20260503051122 21 90 4.8 9.7 0.00 0.00 0.00 45 1216.5
20260503050622 21 142 3.2 8.0 0.00 0.00 0.00 45 1216.5
20260503045931 21 98 6.4 9.7 0.00 0.00 0.00 45 1216.5
20260503045240 21 22 6.4 9.7 0.00 0.00 0.00 46 1213.5
20260503044740 21 98 4.8 12.9 0.00 0.00 0.00 46 1213.5
20260503044240 21 352 9.7 12.9 0.00 0.00 0.00 47 1213.5
20260503043740 21 112 6.4 11.3 0.00 0.00 0.00 47 1213.5
20260503043240 21 79 6.4 9.7 0.00 0.00 0.00 48 1213.5
20260503042740 21 52 8.0 9.7 0.00 0.00 0.00 49 1213.5
20260503042048 21 165 6.4 8.0 0.00 0.00 0.00 50 1211.4
20260503041549 21 112 4.8 8.0 0.00 0.00 0.00 51 1211.4
20260503041048 21 112 8.0 9.7 0.00 0.00 0.00 52 1210.4
20260503040548 20 112 4.8 9.7 0.00 0.00 0.00 52 1210.4
20260503040049 20 135 4.8 9.7 0.00 0.00 0.00 52 1210.4
20260503035548 20 90 6.4 14.5 0.00 0.00 0.00 53 1210.4
20260503035048 20 105 8.0 14.5 0.00 0.00 0.00 53 1210.4
20260503034548 20 68 4.8 8.0 0.00 0.00 0.00 54 1210.4
20260503033857 20 112 6.4 9.7 0.00 0.00 0.00 55 1207.4
20260503033357 20 112 9.7 14.5 0.00 0.00 0.00 56 1207.4
20260503032857 20 146 4.8 14.5 0.00 0.00 0.00 56 1207.4
20260503032357 20 84 11.3 12.9 0.00 0.00 0.00 57 1205.4
20260503031706 20 150 3.2 9.7 0.00 0.00 0.00 58 1205.4
20260503031206 20 82 4.8 9.7 0.00 0.00 0.00 59 1205.4
20260503030705 20 105 9.7 9.7 0.00 0.00 0.00 59 1204.4
20260503030206 19 128 4.8 9.7 0.00 0.00 0.00 60 1204.4
20260503025705 19 135 4.8 9.7 0.00 0.00 0.00 60 1204.4
20260503025205 19 202 6.4 8.0 0.00 0.00 0.00 61 1202.4
20260503024514 19 128 3.2 6.4 0.00 0.00 0.00 62 1202.4
20260503023823 19 68 4.8 6.4 0.00 0.00 0.00 62 1197.3
20260503023323 18 120 4.8 6.4 0.00 0.00 0.00 63 1197.3
20260503022823 18 128 3.2 8.0 0.00 0.00 0.00 63 1197.3
20260503022323 18 112 8.0 9.7 0.00 0.00 0.00 64 1196.3
20260503021631 18 118 4.8 6.4 0.00 0.00 0.00 64 1196.3
20260503021131 18 150 4.8 8.0 0.00 0.00 0.00 64 1193.3
20260503020632 18 112 4.8 8.0 0.00 0.00 0.00 65 1193.3
20260503020131 18 112 3.2 8.0 0.00 0.00 0.00 65 1193.3
20260503015632 18 98 6.4 8.0 0.00 0.00 0.00 65 1189.2
20260503014940 17 112 4.8 4.8 0.00 0.00 0.00 66 1189.2
20260503014440 17 108 3.2 8.0 0.00 0.00 0.00 66 1189.2
20260503013941 17 112 6.4 8.0 0.00 0.00 0.00 66 1189.2
20260503013440 17 90 6.4 6.4 0.00 0.00 0.00 66 1189.2
20260503012940 17 135 3.2 4.8 0.00 0.00 0.00 66 1189.2
20260503012440 17 68 3.2 6.4 0.00 0.00 0.00 66 1187.2
20260503011941 16 120 4.8 6.4 0.00 0.00 0.00 67 1187.2
20260503011249 16 112 3.2 8.0 0.00 0.00 0.00 67 1187.2
20260503010749 16 105 3.2 8.0 0.00 0.00 0.00 67 1187.2
20260503010249 16 82 4.8 9.7 0.00 0.00 0.00 67 1187.2
20260503005558 16 105 6.4 9.7 0.00 0.00 0.00 67 1187.2
20260503005058 15 98 4.8 8.0 0.00 0.00 0.00 67 1187.2
20260503004558 15 105 4.8 8.0 0.00 0.00 0.00 67 1187.2
20260503004058 15 112 3.2 6.4 0.00 0.00 0.00 67 1188.2
20260503003558 15 90 4.8 9.7 0.00 0.00 0.00 67 1188.2
20260503003058 15 112 9.7 9.7 0.00 0.00 0.00 67 1188.2
20260503002406 15 0.0 0.0 0.00 0.00 0.00 68 1188.2
20260503001906 14 0.0 0.0 0.00 0.00 0.00 68 1188.2
20260503001406 14 0.0 0.0 0.00 0.00 0.00 68 1188.2
20260503000906 14 0.0 0.0 0.00 0.00 0.00 68 1189.2
20260503000408 14 0.0 0.0 0.00 0.00 0.00 68 1189.2
20260502235906 14 0.0 0.0 0.00 0.00 0.00 68 1189.2
20260502235406 14 0.0 0.0 0.00 0.00 0.00 67 1190.2
20260502234906 13 0.0 0.0 0.00 0.00 0.00 67 1190.2
20260502234216 13 0.0 0.0 0.00 0.00 0.00 67 1190.2
20260502233715 13 0.0 0.0 0.00 0.00 0.00 67 1191.3
20260502233215 13 0.0 0.0 0.00 0.00 0.00 67 1191.3
20260502232715 13 0.0 0.0 0.00 0.00 0.00 67 1191.3
20260502232215 13 0.0 0.0 0.00 0.00 0.00 67 1188.2
20260502231524 13 0.0 0.0 0.00 0.00 0.00 67 1188.2
20260502231024 13 0.0 0.0 0.00 0.00 0.00 67 1193.3
20260502230524 13 0.0 0.0 0.00 0.00 0.00 67 1193.3
20260502225833 13 0.0 0.0 0.00 0.00 0.00 67 1193.3
20260502225333 13 0.0 0.0 0.00 0.00 0.00 66 1195.3
20260502224833 13 0.0 0.0 0.00 0.00 0.00 66 1195.3
20260502224333 13 0.0 0.0 0.00 0.00 0.00 66 1195.3
20260502223641 13 0.0 0.0 0.00 0.00 0.00 66 1196.3
20260502223142 13 0.0 0.0 0.00 0.00 0.00 66 1196.3
20260502222641 13 0.0 0.0 0.00 0.00 0.00 66 1196.3
20260502222141 13 0.0 0.0 0.00 0.00 0.00 66 1197.3
20260502221641 13 0.0 0.0 0.00 0.00 0.00 66 1197.3
20260502221141 13 0.0 0.0 0.00 0.00 0.00 66 1197.3
20260502220641 13 0.0 0.0 0.00 0.00 0.00 66 1197.3
20260502220141 13 0.0 0.0 0.00 0.00 0.00 65 1197.3
20260502215450 13 0.0 0.0 0.00 0.00 0.00 65 1196.3
20260502214950 13 0.0 0.0 0.00 0.00 0.00 65 1196.3
20260502214450 13 0.0 0.0 0.00 0.00 0.00 65 1196.3
20260502213950 13 0.0 0.0 0.00 0.00 0.00 64 1197.3
20260502213259 13 0.0 0.0 0.00 0.00 0.00 64 1197.3
20260502212759 13 0.0 0.0 0.00 0.00 0.00 63 1197.3
20260502212259 13 0.0 0.0 0.00 0.00 0.00 63 1198.3
20260502211608 13 0.0 0.0 0.00 0.00 0.00 62 1198.3
20260502211108 13 0.0 0.0 0.00 0.00 0.00 62 1200.3
20260502210607 13 0.0 0.0 0.00 0.00 0.00 62 1200.3
20260502210108 13 0.0 0.0 0.00 0.00 0.00 62 1200.3
20260502205608 13 0.0 0.0 0.00 0.00 0.00 61 1199.3
20260502205107 13 0.0 0.0 0.00 0.00 0.00 61 1199.3
20260502204607 13 0.0 0.0 0.00 0.00 0.00 60 1199.3
20260502203916 13 0.0 0.0 0.00 0.00 0.00 60 1199.3
20260502203416 13 0.0 0.0 0.00 0.00 0.00 60 1199.3
20260502202916 14 0.0 0.0 0.00 0.00 0.00 60 1199.3
20260502202225 14 0.0 0.0 0.00 0.00 0.00 60 1199.3
20260502201725 14 0.0 0.0 0.00 0.00 0.00 60 1199.3
20260502201225 14 0.0 0.0 0.00 0.00 0.00 60 1199.3
20260502200725 14 0.0 0.0 0.00 0.00 0.00 60 1200.3
20260502200034 14 0.0 0.0 0.00 0.00 0.00 60 1200.3
20260502195534 14 0.0 0.0 0.00 0.00 0.00 60 1200.3
20260502195034 14 0.0 0.0 0.00 0.00 0.00 60 1200.3
20260502194533 14 0.0 0.0 0.00 0.00 0.00 60 1200.3
20260502194034 14 0.0 0.0 0.00 0.00 0.00 60 1200.3
20260502193534 14 0.0 0.0 0.00 0.00 0.00 59 1200.3
20260502193034 14 0.0 0.0 0.00 0.00 0.00 59 1200.3
20260502192534 14 0.0 0.0 0.00 0.00 0.00 59 1200.3
20260502192033 14 0.0 0.0 0.00 0.00 0.00 59 1200.3
20260502191534 14 0.0 0.0 0.00 0.00 0.00 59 1200.3
20260502190651 14 0.0 0.0 0.00 0.00 0.00 59 1200.3
20260502190151 14 0.0 0.0 0.00 0.00 0.00 59 1200.3
20260502185651 14 0.0 0.0 0.00 0.00 0.00 59 1200.3
20260502185151 15 0.0 0.0 0.00 0.00 0.00 59 1200.3
20260502184651 15 0.0 0.0 0.00 0.00 0.00 59 1200.3
20260502184151 15 0.0 0.0 0.00 0.00 0.00 59 1200.3
20260502183651 15 0.0 0.0 0.00 0.00 0.00 59 1199.3
20260502183151 15 0.0 0.0 0.00 0.00 0.00 59 1199.3
20260502182651 15 0.0 0.0 0.00 0.00 0.00 59 1199.3
20260502182151 15 0.0 0.0 0.00 0.00 0.00 59 1197.3
20260502181459 15 0.0 0.0 0.00 0.00 0.00 59 1197.3